TimeEST,TemperatureF,Dew PointF,Humidity,Sea Level PressureIn,VisibilityMPH,Wind Direction,Wind SpeedMPH,Gust SpeedMPH,PrecipitationIn,Events,Conditions,WindDirDegrees,DateUTC
12:53 AM,60.1,44.1,55,30.18,10.0,North,6.9,-,N/A,,Clear,350,2013-02-01 05:53:00
1:53 AM,57.9,43.0,58,30.18,10.0,North,13.8,-,N/A,,Clear,350,2013-02-01 06:53:00
2:53 AM,57.2,39.2,51,30.17,10.0,North,10.4,-,N/A,,Clear,350,2013-02-01 07:53:00
3:53 AM,55.0,37.9,53,30.17,10.0,North,11.5,-,N/A,,Clear,350,2013-02-01 08:53:00
4:53 AM,54.0,37.0,53,30.17,10.0,North,12.7,-,N/A,,Clear,360,2013-02-01 09:53:00
5:53 AM,54.0,37.0,53,30.19,10.0,North,12.7,-,N/A,,Clear,350,2013-02-01 10:53:00
6:53 AM,53.1,37.0,55,30.21,10.0,North,12.7,21.9,N/A,,Clear,360,2013-02-01 11:53:00
7:53 AM,55.4,39.2,54,30.23,10.0,North,13.8,-,N/A,,Clear,360,2013-02-01 12:53:00
8:53 AM,60.1,44.1,55,30.25,10.0,North,15.0,18.4,N/A,,Clear,10,2013-02-01 13:53:00
9:53 AM,64.4,46.4,52,30.27,10.0,North,13.8,-,N/A,,Clear,360,2013-02-01 14:53:00
10:53 AM,68.0,48.9,50,30.26,10.0,NNE,13.8,-,N/A,,Clear,20,2013-02-01 15:53:00
11:53 AM,72.0,51.1,48,30.25,10.0,NNE,13.8,-,N/A,,Clear,30,2013-02-01 16:53:00
12:53 PM,75.0,48.9,40,30.23,10.0,NNE,10.4,20.7,N/A,,Clear,30,2013-02-01 17:53:00
1:53 PM,75.0,50.0,41,30.21,10.0,NE,11.5,-,N/A,,Partly Cloudy,50,2013-02-01 18:53:00
2:53 PM,73.9,48.9,41,30.20,10.0,ENE,16.1,-,N/A,,Scattered Clouds,60,2013-02-01 19:53:00
3:53 PM,75.0,51.1,43,30.20,10.0,NE,16.1,-,N/A,,Scattered Clouds,50,2013-02-01 20:53:00
4:53 PM,73.0,52.0,48,30.20,10.0,NE,18.4,24.2,N/A,,Partly Cloudy,40,2013-02-01 21:53:00
5:53 PM,70.0,53.1,55,30.22,10.0,NE,12.7,-,N/A,,Mostly Cloudy,50,2013-02-01 22:53:00
6:53 PM,68.0,53.1,59,30.22,10.0,NE,15.0,-,N/A,,Scattered Clouds,50,2013-02-01 23:53:00
7:53 PM,68.0,50.0,52,30.24,10.0,NE,8.1,-,N/A,,Mostly Cloudy,40,2013-02-02 00:53:00
8:53 PM,64.9,53.1,65,30.24,10.0,North,10.4,-,N/A,,Partly Cloudy,10,2013-02-02 01:53:00
9:53 PM,63.0,53.1,70,30.24,10.0,North,10.4,-,N/A,,Partly Cloudy,10,2013-02-02 02:53:00
10:53 PM,61.0,53.1,75,30.25,10.0,North,8.1,-,N/A,,Mostly Cloudy,350,2013-02-02 03:53:00
11:53 PM,57.0,51.1,81,30.24,10.0,North,5.8,-,N/A,,Clear,350,2013-02-02 04:53:00